Time,TemperatureF,DewpointF,PressureIn,WindDirection,WindDirectionDegrees,WindSpeedMPH,WindSpeedGustMPH,Humidity,HourlyPrecipIn,Conditions,Clouds,dailyrainin,SoftwareType,DateUTC
2013-05-09 00:07:00,62.6,62.0,30.03,ENE,71,0.0,0.0,96,0.00,,,0.00,weatherlink.com 1.10,2013-05-09 05:07:00,
2013-05-09 00:22:00,62.4,61.0,30.03,ENE,71,0.0,0.0,96,0.00,,,0.00,weatherlink.com 1.10,2013-05-09 05:22:00,
2013-05-09 00:37:00,62.2,61.0,30.03,ENE,71,0.0,0.0,96,0.00,,,0.00,weatherlink.com 1.10,2013-05-09 05:37:00,
2013-05-09 00:52:00,61.9,61.0,30.02,ENE,71,0.0,0.0,96,0.00,,,0.00,weatherlink.com 1.10,2013-05-09 05:52:00,
2013-05-09 01:07:00,61.8,61.0,30.02,ENE,71,0.0,0.0,97,0.00,,,0.00,weatherlink.com 1.10,2013-05-09 06:07:00,
2013-05-09 01:22:00,61.6,61.0,30.01,ENE,71,0.0,0.0,97,0.00,,,0.00,weatherlink.com 1.10,2013-05-09 06:22:00,
2013-05-09 01:37:00,61.3,61.0,30.00,ENE,70,0.0,0.0,97,0.00,,,0.00,weatherlink.com 1.10,2013-05-09 06:37:00,
2013-05-09 01:52:00,61.0,60.0,30.00,ENE,71,0.0,0.0,97,0.00,,,0.00,weatherlink.com 1.10,2013-05-09 06:52:00,
2013-05-09 02:07:00,60.7,60.0,30.00,ENE,71,0.0,0.0,97,0.00,,,0.00,weatherlink.com 1.10,2013-05-09 07:07:00,
2013-05-09 02:22:00,60.3,60.0,30.00,ENE,71,0.0,0.0,97,0.00,,,0.00,weatherlink.com 1.10,2013-05-09 07:22:00,
2013-05-09 02:37:00,60.0,59.0,30.00,ENE,71,0.0,0.0,97,0.00,,,0.00,weatherlink.com 1.10,2013-05-09 07:37:00,
2013-05-09 02:52:00,59.7,59.0,30.00,ENE,70,0.0,0.0,97,0.00,,,0.00,weatherlink.com 1.10,2013-05-09 07:52:00,
2013-05-09 03:07:00,59.5,59.0,29.99,ENE,71,0.0,0.0,97,0.00,,,0.00,weatherlink.com 1.10,2013-05-09 08:07:00,
2013-05-09 03:22:00,59.5,59.0,29.99,ENE,71,0.0,0.0,97,0.00,,,0.00,weatherlink.com 1.10,2013-05-09 08:22:00,
2013-05-09 03:37:00,59.2,58.0,29.99,ENE,71,0.0,0.0,97,0.00,,,0.00,weatherlink.com 1.10,2013-05-09 08:37:00,
2013-05-09 03:52:00,59.0,58.0,29.99,ENE,71,0.0,0.0,97,0.00,,,0.00,weatherlink.com 1.10,2013-05-09 08:52:00,
2013-05-09 04:07:00,58.7,58.0,29.99,ENE,71,0.0,0.0,97,0.00,,,0.00,weatherlink.com 1.10,2013-05-09 09:07:00,
2013-05-09 04:22:00,58.5,58.0,29.99,ENE,70,0.0,0.0,98,0.00,,,0.00,weatherlink.com 1.10,2013-05-09 09:22:00,
2013-05-09 04:37:00,58.5,58.0,30.00,ENE,70,0.0,0.0,98,0.00,,,0.00,weatherlink.com 1.10,2013-05-09 09:37:00,
2013-05-09 04:52:00,58.5,58.0,30.00,ENE,71,0.0,0.0,98,0.00,,,0.00,weatherlink.com 1.10,2013-05-09 09:52:00,
2013-05-09 05:07:00,58.4,58.0,30.01,ENE,71,0.0,0.0,98,0.00,,,0.00,weatherlink.com 1.10,2013-05-09 10:07:00,
2013-05-09 05:22:00,58.2,58.0,30.01,ENE,70,0.0,0.0,98,0.00,,,0.00,weatherlink.com 1.10,2013-05-09 10:22:00,
2013-05-09 05:37:00,58.3,58.0,30.01,ENE,70,0.0,0.0,98,0.00,,,0.00,weatherlink.com 1.10,2013-05-09 10:37:00,
2013-05-09 05:52:00,58.5,58.0,30.01,ENE,70,0.0,0.0,98,0.00,,,0.00,weatherlink.com 1.10,2013-05-09 10:52:00,
2013-05-09 06:07:00,58.5,58.0,30.02,ENE,71,0.0,0.0,98,0.00,,,0.00,weatherlink.com 1.10,2013-05-09 11:07:00,
2013-05-09 06:22:00,58.7,58.0,30.02,ENE,71,0.0,0.0,98,0.00,,,0.00,weatherlink.com 1.10,2013-05-09 11:22:00,
2013-05-09 06:38:00,59.0,59.0,30.03,ENE,71,0.0,0.0,98,0.00,,,0.00,weatherlink.com 1.10,2013-05-09 11:38:00,
2013-05-09 06:53:00,59.6,59.0,30.04,ENE,71,0.0,0.0,98,0.00,,,0.00,weatherlink.com 1.10,2013-05-09 11:53:00,
2013-05-09 07:09:00,60.6,60.0,30.05,ENE,70,0.0,0.0,99,0.00,,,0.00,weatherlink.com 1.10,2013-05-09 12:09:00,
2013-05-09 07:23:00,61.6,61.0,30.05,ENE,70,0.0,0.0,99,0.00,,,0.00,weatherlink.com 1.10,2013-05-09 12:23:00,
2013-05-09 07:38:00,63.1,63.0,30.05,ENE,70,0.0,0.0,99,0.00,,,0.00,weatherlink.com 1.10,2013-05-09 12:38:00,
2013-05-09 07:53:00,65.5,65.0,30.05,ENE,71,0.0,0.0,99,0.00,,,0.00,weatherlink.com 1.10,2013-05-09 12:53:00,
2013-05-09 08:08:00,66.8,67.0,30.05,ENE,70,0.0,0.0,99,0.00,,,0.00,weatherlink.com 1.10,2013-05-09 13:08:00,
2013-05-09 08:23:00,68.1,68.0,30.06,ENE,72,0.0,1.0,99,0.00,,,0.00,weatherlink.com 1.10,2013-05-09 13:23:00,
2013-05-09 08:38:00,69.5,69.0,30.06,ESE,102,0.0,1.0,98,0.00,,,0.00,weatherlink.com 1.10,2013-05-09 13:38:00,
2013-05-09 08:53:00,71.3,69.0,30.07,ESE,109,0.0,1.0,93,0.00,,,0.00,weatherlink.com 1.10,2013-05-09 13:53:00,
2013-05-09 09:08:00,72.3,69.0,30.07,ENE,65,0.0,2.0,88,0.00,,,0.00,weatherlink.com 1.10,2013-05-09 14:08:00,
2013-05-09 09:23:00,73.4,69.0,30.07,ENE,65,0.0,1.0,85,0.00,,,0.00,weatherlink.com 1.10,2013-05-09 14:23:00,
2013-05-09 09:38:00,74.0,69.0,30.07,East,79,1.0,2.0,83,0.00,,,0.00,weatherlink.com 1.10,2013-05-09 14:38:00,
2013-05-09 09:53:00,74.2,68.0,30.08,ENE,63,0.0,2.0,80,0.00,,,0.00,weatherlink.com 1.10,2013-05-09 14:53:00,
2013-05-09 10:08:00,74.5,68.0,30.08,East,82,0.0,2.0,79,0.00,,,0.00,weatherlink.com 1.10,2013-05-09 15:08:00,
2013-05-09 10:23:00,75.5,69.0,30.08,ENE,73,2.0,2.0,79,0.00,,,0.00,weatherlink.com 1.10,2013-05-09 15:23:00,
2013-05-09 10:38:00,76.4,67.0,30.08,NE,49,0.0,2.0,72,0.00,,,0.00,weatherlink.com 1.10,2013-05-09 15:38:00,
2013-05-09 10:53:00,77.3,67.0,30.09,SE,131,0.0,2.0,71,0.00,,,0.00,weatherlink.com 1.10,2013-05-09 15:53:00,
2013-05-09 11:08:00,77.5,66.0,30.08,SSE,149,0.0,2.0,68,0.00,,,0.00,weatherlink.com 1.10,2013-05-09 16:08:00,
2013-05-09 11:23:00,78.2,66.0,30.09,ESE,104,1.0,2.0,66,0.00,,,0.00,weatherlink.com 1.10,2013-05-09 16:23:00,
2013-05-09 11:38:00,79.2,63.0,30.08,SSE,161,0.0,2.0,57,0.00,,,0.00,weatherlink.com 1.10,2013-05-09 16:38:00,
2013-05-09 11:53:00,80.0,62.0,30.09,ENE,74,0.0,3.0,54,0.00,,,0.00,weatherlink.com 1.10,2013-05-09 16:53:00,
2013-05-09 12:09:00,81.3,63.0,30.08,SSE,159,1.0,2.0,54,0.00,,,0.00,weatherlink.com 1.10,2013-05-09 17:09:00,
2013-05-09 12:24:00,81.9,64.0,30.08,ESE,110,0.0,2.0,54,0.00,,,0.00,weatherlink.com 1.10,2013-05-09 17:24:00,
2013-05-09 12:39:00,83.0,64.0,30.08,NE,43,2.0,2.0,52,0.00,,,0.00,weatherlink.com 1.10,2013-05-09 17:39:00,
2013-05-09 12:54:00,82.8,64.0,30.07,ENE,72,1.0,3.0,53,0.00,,,0.00,weatherlink.com 1.10,2013-05-09 17:54:00,
2013-05-09 13:09:00,83.1,64.0,30.07,ENE,64,1.0,2.0,53,0.00,,,0.00,weatherlink.com 1.10,2013-05-09 18:09:00,
2013-05-09 13:24:00,83.6,65.0,30.07,ENE,64,0.0,1.0,53,0.00,,,0.00,weatherlink.com 1.10,2013-05-09 18:24:00,
2013-05-09 13:39:00,83.8,64.0,30.07,East,94,1.0,2.0,52,0.00,,,0.00,weatherlink.com 1.10,2013-05-09 18:39:00,
2013-05-09 13:54:00,84.2,65.0,30.06,ENE,77,0.0,1.0,52,0.00,,,0.00,weatherlink.com 1.10,2013-05-09 18:54:00,
2013-05-09 14:09:00,83.4,63.0,30.05,SSE,162,1.0,3.0,51,0.00,,,0.00,weatherlink.com 1.10,2013-05-09 19:09:00,
2013-05-09 14:24:00,82.9,63.0,30.04,ESE,113,0.0,2.0,52,0.00,,,0.00,weatherlink.com 1.10,2013-05-09 19:24:00,
2013-05-09 14:39:00,81.7,64.0,30.04,ESE,122,0.0,2.0,56,0.00,,,0.00,weatherlink.com 1.10,2013-05-09 19:39:00,
2013-05-09 14:54:00,81.2,64.0,30.04,ESE,113,1.0,2.0,57,0.00,,,0.00,weatherlink.com 1.10,2013-05-09 19:54:00,
2013-05-09 15:09:00,80.2,63.0,30.03,ENE,68,1.0,2.0,57,0.00,,,0.00,weatherlink.com 1.10,2013-05-09 20:09:00,
2013-05-09 15:24:00,79.3,64.0,30.03,ENE,68,0.0,2.0,59,0.00,,,0.00,weatherlink.com 1.10,2013-05-09 20:24:00,
2013-05-09 15:39:00,78.9,64.0,30.03,SW,215,3.0,3.0,61,0.00,,,0.00,weatherlink.com 1.10,2013-05-09 20:39:00,
2013-05-09 15:54:00,78.6,65.0,30.03,ENE,68,1.0,2.0,63,0.00,,,0.00,weatherlink.com 1.10,2013-05-09 20:54:00,
2013-05-09 16:09:00,78.3,65.0,30.03,ESE,118,0.0,2.0,64,0.00,,,0.00,weatherlink.com 1.10,2013-05-09 21:09:00,
2013-05-09 16:24:00,77.8,66.0,30.03,SE,134,0.0,1.0,67,0.00,,,0.00,weatherlink.com 1.10,2013-05-09 21:24:00,
2013-05-09 16:39:00,77.5,66.0,30.02,East,89,0.0,3.0,68,0.00,,,0.00,weatherlink.com 1.10,2013-05-09 21:39:00,
2013-05-09 16:54:00,77.2,66.0,30.02,ESE,120,0.0,1.0,68,0.00,,,0.00,weatherlink.com 1.10,2013-05-09 21:54:00,
2013-05-09 17:09:00,76.5,66.0,30.02,SE,126,0.0,1.0,70,0.00,,,0.00,weatherlink.com 1.10,2013-05-09 22:09:00,
2013-05-09 17:24:00,76.1,66.0,30.02,ESE,108,0.0,1.0,72,0.00,,,0.00,weatherlink.com 1.10,2013-05-09 22:24:00,
2013-05-09 17:39:00,75.6,66.0,30.02,SE,131,0.0,1.0,73,0.00,,,0.00,weatherlink.com 1.10,2013-05-09 22:39:00,
2013-05-09 17:54:00,75.1,66.0,30.02,SE,143,0.0,2.0,73,0.00,,,0.00,weatherlink.com 1.10,2013-05-09 22:54:00,
2013-05-09 18:09:00,74.9,66.0,30.02,ESE,120,0.0,1.0,74,0.00,,,0.00,weatherlink.com 1.10,2013-05-09 23:09:00,
2013-05-09 18:24:00,74.5,66.0,30.02,NE,56,0.0,1.0,75,0.00,,,0.00,weatherlink.com 1.10,2013-05-09 23:24:00,
2013-05-09 18:39:00,73.9,66.0,30.01,SE,139,0.0,1.0,75,0.00,,,0.00,weatherlink.com 1.10,2013-05-09 23:39:00,
2013-05-09 19:09:00,72.6,65.0,30.02,SE,139,0.0,2.0,77,0.00,,,0.00,weatherlink.com 1.10,2013-05-10 00:09:00,
2013-05-09 19:24:00,71.8,65.0,30.02,SE,136,0.0,1.0,79,0.00,,,0.00,weatherlink.com 1.10,2013-05-10 00:24:00,
2013-05-09 19:39:00,71.0,65.0,30.02,SE,136,0.0,0.0,81,0.00,,,0.00,weatherlink.com 1.10,2013-05-10 00:39:00,
2013-05-09 19:54:00,70.0,65.0,30.02,SE,137,0.0,0.0,83,0.00,,,0.00,weatherlink.com 1.10,2013-05-10 00:54:00,
2013-05-09 20:09:00,69.1,65.0,30.03,SE,136,0.0,0.0,85,0.00,,,0.00,weatherlink.com 1.10,2013-05-10 01:09:00,
2013-05-09 20:24:00,68.4,64.0,30.02,SE,136,0.0,0.0,87,0.00,,,0.00,weatherlink.com 1.10,2013-05-10 01:24:00,
2013-05-09 20:39:00,67.7,64.0,30.03,SE,137,0.0,0.0,89,0.00,,,0.00,weatherlink.com 1.10,2013-05-10 01:39:00,
2013-05-09 20:54:00,66.9,64.0,30.03,SE,137,0.0,0.0,90,0.00,,,0.00,weatherlink.com 1.10,2013-05-10 01:54:00,
2013-05-09 21:09:00,66.3,64.0,30.03,SE,136,0.0,0.0,91,0.00,,,0.00,weatherlink.com 1.10,2013-05-10 02:09:00,
2013-05-09 21:24:00,65.5,63.0,30.03,SE,136,0.0,0.0,92,0.00,,,0.00,weatherlink.com 1.10,2013-05-10 02:24:00,
2013-05-09 21:39:00,65.2,64.0,30.03,SE,136,0.0,0.0,94,0.00,,,0.00,weatherlink.com 1.10,2013-05-10 02:39:00,
2013-05-09 21:54:00,65.1,63.0,30.03,SE,136,0.0,0.0,94,0.00,,,0.00,weatherlink.com 1.10,2013-05-10 02:54:00,
2013-05-09 22:09:00,64.8,63.0,30.03,SE,136,0.0,0.0,95,0.00,,,0.00,weatherlink.com 1.10,2013-05-10 03:09:00,
2013-05-09 22:24:00,64.5,63.0,30.03,SE,136,0.0,0.0,95,0.00,,,0.00,weatherlink.com 1.10,2013-05-10 03:24:00,
2013-05-09 22:39:00,64.3,63.0,30.03,SE,137,0.0,0.0,95,0.00,,,0.00,weatherlink.com 1.10,2013-05-10 03:39:00,
2013-05-09 22:54:00,63.9,63.0,30.03,SE,136,0.0,0.0,95,0.00,,,0.00,weatherlink.com 1.10,2013-05-10 03:54:00,
2013-05-09 23:09:00,63.6,62.0,30.04,SE,136,0.0,0.0,95,0.00,,,0.00,weatherlink.com 1.10,2013-05-10 04:09:00,
2013-05-09 23:24:00,63.3,62.0,30.03,SE,136,0.0,0.0,95,0.00,,,0.00,weatherlink.com 1.10,2013-05-10 04:24:00,
2013-05-09 23:39:00,63.1,62.0,30.02,SE,136,0.0,0.0,96,0.00,,,0.00,weatherlink.com 1.10,2013-05-10 04:39:00,
2013-05-09 23:54:00,63.1,62.0,30.01,SE,136,0.0,0.0,96,0.00,,,0.00,weatherlink.com 1.10,2013-05-10 04:54:00,